Location: Exeidioux
(45.6312°N, 1.6819°E)
Time: 14:49:57
(UTC+00:00)

USA 306 - Pass Details

Date: 03 March 2021
Orbit: 564 x 577 km, 54.0° (Epoch: 10 April)

Event Time Altitude Azimuth Distance (km) Brightness Sun altitude
Rises 18:18:10 0° 275° (W) 2,783 8.8 -6.9°
Reaches altitude 10° 18:20:39 10° 286° (WNW) 1,883 7.0 -7.4°
Maximum altitude 18:24:27 30° 348° (NNW) 1,052 4.4 -8.0°
Drops below altitude 10° 18:28:13 10° 50° (NE) 1,878 5.1 -8.7°
Enters shadow 18:28:59 - 55° (NE) 2,142 5.3 -8.8°
